Weather History for Poplar Bluff, MO

Change the Weather History Date:

Saturday, December 29, 2012

  Actual Average Record
Temperature  
Mean Temperature 28 °F -  
Max Temperature 35 °F 43 °F 70 °F (1984)
Min Temperature 21 °F 27 °F 4 °F (1935)
Degree Days  
Heating Degree Days 37    
Moisture  
Dew Point 24 °F    
Average Humidity 79    
Maximum Humidity 93    
Minimum Humidity 69    
Precipitation  
Precipitation 0.00 in - - ()
Sea Level Pressure  
Sea Level Pressure 30.18 in    
Wind  
Wind Speed 10 mph (WNW)    
Max Wind Speed 20 mph    
Max Gust Speed 26 mph    
Visibility 6 miles    
Events Snow    
Averages and records for this station are not official NWS values.
T = Trace of Precipitation, MM = Missing Value Source: NWS Daily Summary

Daily Weather History Graph

Daily Weather History Graph

Search for Another Location

Airport:

Trip Planner

Search our weather history database for the weather conditions in past years. The results will help you decide how hot, cold, wet, or windy it might be!

Date:

Astronomy

Dec. 29, 2012 Rise Set
Actual Time 7:13 AM CST 4:53 PM CST
Civil Twilight 6:44 AM CST 5:22 PM CST
Nautical Twilight 6:12 AM CST 5:55 PM CST
Astronomical Twilight 5:40 AM CST 6:26 PM CST
Moon 6:24 PM CST (12/29) 7:49 AM CST (12/29)
Length of Visible Light 10h 38m
Length of Day
9h 40m
Full, 98% of the Moon is Illuminated
Dec 29
Full
Jan 4
Last Quarter
Jan 11
New
Jan 18
First Quarter
Jan 26
Full

Hourly Weather History & Observations

Time (CST) Temp. Windchill Dew Point Humidity Pressure Visibility Wind Dir Wind Speed Gust Speed Precip Events Conditions
12:04 AM 33.8 °F 27.0 °F 32.0 °F 93% 29.92 in 9.0 mi WNW 8.1 mph - N/A   Overcast
12:48 AM 35.6 °F 29.2 °F 30.2 °F 81% 29.93 in 9.0 mi NW 8.1 mph - N/A   Overcast
12:53 AM 35.1 °F 28.6 °F 30.9 °F 85% 29.95 in 9.0 mi WNW 8.1 mph - N/A   Overcast
1:53 AM 35.1 °F 27.9 °F 30.0 °F 82% 29.97 in 7.0 mi WNW 9.2 mph - N/A   Overcast
2:53 AM 35.1 °F 27.9 °F 30.0 °F 82% 30.00 in 7.0 mi WNW 9.2 mph - N/A   Overcast
3:53 AM 34.0 °F 26.6 °F 28.9 °F 82% 30.00 in 7.0 mi NW 9.2 mph - N/A   Overcast
4:53 AM 34.0 °F 29.8 °F 28.0 °F 79% 30.03 in 8.0 mi West 4.6 mph - N/A   Overcast
5:53 AM 33.1 °F 25.5 °F 27.0 °F 78% 30.06 in 9.0 mi WNW 9.2 mph - N/A   Overcast
6:53 AM 33.1 °F 23.9 °F 26.1 °F 75% 30.09 in 8.0 mi WNW 12.7 mph - N/A   Overcast
7:00 AM 33.8 °F 24.8 °F 26.6 °F 75% 30.07 in 8.0 mi NW 12.7 mph - N/A   Overcast
7:53 AM 32.0 °F 22.1 °F 25.0 °F 75% 30.12 in 3.0 mi WNW 13.8 mph - 0.00 in Snow Light Snow
8:01 AM 30.2 °F 18.9 °F 24.8 °F 80% 30.10 in 3.0 mi WNW 16.1 mph - 0.00 in Snow Light Snow
8:53 AM 30.9 °F 19.4 °F 24.1 °F 76% 30.16 in 2.5 mi WNW 17.3 mph - 0.00 in Snow Light Snow
9:08 AM 30.2 °F 19.8 °F 24.8 °F 80% 30.14 in 1.5 mi WNW 13.8 mph 21.9 mph 0.00 in Snow Light Snow
9:30 AM 30.2 °F 18.5 °F 24.8 °F 80% 30.15 in 1.8 mi WNW 17.3 mph 21.9 mph 0.00 in Snow Light Snow
9:53 AM 30.0 °F 18.3 °F 24.1 °F 79% 30.18 in 2.5 mi NW 17.3 mph 23.0 mph 0.00 in Snow Light Snow
10:03 AM 30.2 °F 19.8 °F 24.8 °F 80% 30.17 in 4.0 mi WNW 13.8 mph 24.2 mph 0.00 in Snow Light Snow
10:53 AM 30.9 °F 18.7 °F 24.1 °F 76% 30.20 in 5.0 mi NW 19.6 mph 25.3 mph 0.00 in   Haze
11:45 AM 30.2 °F 18.1 °F 24.8 °F 80% 30.19 in 6.0 mi NW 18.4 mph 26.5 mph N/A   Haze
11:53 AM 30.9 °F 19.1 °F 23.0 °F 72% 30.21 in 6.0 mi WNW 18.4 mph 26.5 mph N/A   Haze
12:53 PM 30.9 °F 19.1 °F 23.0 °F 72% 30.22 in 6.0 mi NW 18.4 mph 24.2 mph N/A   Haze
1:53 PM 32.0 °F 21.6 °F 23.0 °F 69% 30.22 in 8.0 mi WNW 15.0 mph - N/A   Overcast
2:53 PM 30.9 °F 23.5 °F 21.9 °F 69% 30.26 in 10.0 mi NW 8.1 mph - N/A   Mostly Cloudy
3:53 PM 32.0 °F 26.4 °F 23.0 °F 69% 30.30 in 9.0 mi WNW 5.8 mph - N/A   Overcast
4:39 PM 30.2 °F 23.4 °F 21.2 °F 69% 30.29 in 9.0 mi West 6.9 mph - N/A   Scattered Clouds
5:53 PM 28.9 °F - 21.0 °F 72% 30.34 in 9.0 mi Calm Calm - N/A   Clear
6:53 PM 25.0 °F - 21.0 °F 85% 30.37 in 7.0 mi Calm Calm - N/A   Clear
7:53 PM 24.1 °F - 19.9 °F 84% 30.38 in 6.0 mi Calm Calm - N/A   Clear
8:53 PM 23.0 °F - 18.0 °F 81% 30.40 in 5.0 mi Calm Calm - N/A   Haze
9:53 PM 21.9 °F - 18.0 °F 85% 30.41 in 4.0 mi Calm Calm - N/A   Clear
10:53 PM 21.9 °F - 19.0 °F 89% 30.40 in 4.0 mi Calm Calm - N/A   Clear
11:27 PM 21.2 °F - 17.6 °F 86% 30.38 in 2.5 mi Calm Calm - N/A   Clear
11:43 PM 21.2 °F - 17.6 °F 86% 30.39 in 3.0 mi Calm Calm - N/A   Clear